Location: Αθήνα
(37.9839°N, 23.7283°E)
Time: 19:41:33
(UTC+03:00)

ISS - Pass Details

Date: 27 June 2024
Orbit: 410 x 424 km, 51.6° (Epoch: 12 July)

Event Time Altitude Azimuth Distance (km) Brightness Sun altitude
Exits shadow 04:47:33 - 285° (WNW) 1,677 -1.0 -12.9°
Reaches altitude 10° 04:48:12 10° 293° (WNW) 1,484 -1.2 -12.8°
Maximum altitude 04:50:29 17° 336° (NNW) 1,133 -1.3 -12.5°
Drops below altitude 10° 04:52:47 10° 20° (NNE) 1,494 0.1 -12.2°
Sets 04:55:25 0° 41° (NE) 2,363 2.1 -11.8°
